User: anonymous   Login
Location: Altleiningen
(49.5078°N, 8.0741°E)
Time: 17:30:31
(UTC+00:00)
Language:

Cosmos 2333 Rocket - Orbit

View from above orbital plane
View from above orbital plane
View from above satellite
View from above satellite

Ground track
Ground track

The orbit data is extracted from the following two-line orbital elements,

1 24298U 96051B   21128.42811222 -.00000193  00000-0 -77791-4 0  9992
2 24298  70.8292 305.3630 0018202 233.8280 126.1157 14.12448958272509
Epoch (UTC): 08 May 2021 10:16:28
Eccentricity: 0.0018202
inclination: 70.8292°
perigee height: 838 km
apogee height: 864 km
right ascension of ascending node: 305.3630°
argument of perigee: 233.8280°
revolutions per day: 14.12448958
mean anomaly at epoch: 126.1157°
orbit number at epoch: 27250

The dashed part of the orbit path shows where the satellite is in the earth's shadow,  

DLR